date,time,DOY,Ta_1_1_1,Pa_1_1_1,RH_1_1_1,LWin_1_1_1,LWout_1_1_1,SWin_1_1_1,SWout_1_1_1,PPFD_1_1_1,MWS_1_1_1,WD_1_1_1,SWC_1_1_1,Ts_1_1_1
[yyyy-mm-dd],[HH:MM],[ddd.ddd],[K],[Pa],[%],[W+1m-2],[W+1m-2],[W+1m-2],[W+1m-2],[µmol+1m-2s-1],[m+1s-1],[deg],[m+3m-3],[K]
2014-12-26,00:30,360.020,270.92800000000000,94362.199999999997,90.235333333333330,-0.41933333333333334,-0.38700000000000018,0.15699999999999997,-1.0616666666666668,-2.73333333333333345E-002,1.2200000000000000,159.52233333333331,0.33999999999999991,274.10966666666667
2014-12-26,01:00,360.041,270.86999999999989,94373.133333333331,90.206666666666663,-0.15166666666666670,-0.17133333333333337,0.14633333333333332,-0.38666666666666671,-3.23333333333333389E-002,1.3966666666666667,149.31033333333332,0.33999999999999991,274.10433333333333
2014-12-26,01:30,360.062,270.82866666666661,94369.666666666672,90.272999999999996,-0.11833333333333333,-0.12566666666666665,6.46666666666666778E-002,-0.39699999999999991,-3.23333333333333389E-002,0.77666666666666695,120.95499999999998,0.33999999999999991,274.10400000000004
2014-12-26,02:00,360.083,271.01800000000009,94382.666666666672,89.380333333333311,-0.20666666666666664,-0.21300000000000002,0.10100000000000001,-0.55766666666666664,-2.90000000000000049E-002,0.56000000000000016,95.399666666666661,0.33999999999999991,274.10399999999998
2014-12-26,02:30,360.104,271.01233333333334,94370.133333333331,89.187999999999974,-1.0616666666666668,-0.59966666666666668,0.12066666666666669,-1.6513333333333329,-2.46666666666666735E-002,1.1233333333333333,120.67833333333333,0.33999999999999991,274.10733333333337
2014-12-26,03:00,360.124,270.86333333333329,94392.066666666666,89.140000000000015,-0.89866666666666650,-0.58233333333333326,0.29366666666666669,-1.6456666666666664,-3.16666666666666693E-002,0.92333333333333334,67.188666666666663,0.33999999999999991,274.09966666666668
2014-12-26,03:30,360.145,270.62866666666673,94420.000000000000,89.676666666666662,-1.2870000000000001,-0.61399999999999999,-9.33333333333333064E-003,-1.3650000000000000,-3.63333333333333425E-002,1.1433333333333333,100.23299999999999,0.33999999999999991,274.10366666666670
2014-12-26,04:00,360.166,270.50666666666677,94418.000000000000,90.053666666666686,-1.1279999999999999,-0.39133333333333326,-8.10000000000000026E-002,-0.87333333333333307,-2.26666666666666683E-002,1.2099999999999997,82.255000000000010,0.33999999999999991,274.10599999999988
2014-12-26,04:30,360.187,270.76500000000004,94437.533333333340,89.326000000000008,-0.87199999999999989,-0.18033333333333335,0.17700000000000005,-0.35733333333333339,-2.56666666666666744E-002,1.5366666666666666,38.878000000000000,0.33999999999999991,274.10066666666677
2014-12-26,05:00,360.208,270.73766666666666,94434.000000000000,89.572333333333333,-0.86766666666666648,-0.12600000000000000,-2.23333333333333335E-002,-0.51833333333333331,-2.90000000000000049E-002,1.5666666666666664,44.977999999999994,0.33999999999999991,274.10066666666683
2014-12-26,05:30,360.229,270.79200000000014,94445.933333333334,89.305666666666681,-0.67133333333333356,-0.14199999999999999,-5.86666666666666656E-002,-0.46466666666666662,-3.00000000000000024E-002,1.6666666666666670,33.744333333333337,0.33999999999999991,274.10633333333334
2014-12-26,06:00,360.249,270.56766666666687,94476.300000000003,89.727666666666678,-0.28333333333333338,-2.40000000000000074E-002,-5.03333333333333410E-002,-0.12233333333333338,-2.83333333333333423E-002,1.4600000000000000,49.621999999999993,0.33999999999999991,274.10199999999998
2014-12-26,06:30,360.270,270.67233333333337,94493.000000000000,89.450000000000003,-0.21766666666666665,-3.93333333333333382E-002,-0.10400000000000002,-0.21633333333333335,-2.80000000000000110E-002,1.6033333333333333,35.456000000000003,0.33999999999999991,274.10200000000009
2014-12-26,07:00,360.291,270.54133333333351,94516.666666666672,89.729333333333358,-0.13099999999999998,-0.10333333333333335,-1.53333333333333273E-002,-0.34366666666666656,-2.16666666666666709E-002,1.3366666666666667,47.366999999999990,0.33999999999999991,274.10000000000002
2014-12-26,07:30,360.312,270.36433333333338,94481.966666666660,89.973333333333315,-0.42133333333333334,-0.39633333333333337,3.86666666666666686E-002,-1.0896666666666666,0.57766666666666677,3.1066666666666665,187.25600000000000,0.33999999999999991,274.09966666666674
2014-12-26,08:00,360.333,270.26566666666673,94494.699999999997,90.754666666666665,-6.96666666666667100E-002,-0.13699999999999998,1.1233333333333333,3.2423333333333333,9.6859999999999982,1.7966666666666662,60.533666666666662,0.33999999999999991,274.10533333333348
2014-12-26,08:30,360.354,270.48666666666679,94537.233333333337,89.651666666666671,0.10000000000000001,-1.00000000000000002E-003,3.6196666666666664,10.511333333333333,26.615666666666662,1.4400000000000002,74.700000000000003,0.34166666666666656,274.09933333333339
2014-12-26,09:00,360.374,270.45233333333351,94558.000000000000,90.291000000000011,0.13399999999999998,5.46666666666666828E-002,8.4429999999999996,23.694666666666670,57.473999999999997,1.7666666666666666,50.954999999999977,0.33999999999999991,274.10200000000003
2014-12-26,09:30,360.395,270.68000000000001,94601.766666666663,89.658000000000030,0.12833333333333335,4.93333333333333540E-002,10.273000000000000,28.641666666666669,69.522000000000020,1.6333333333333333,109.03366666666668,0.33999999999999991,274.09700000000009
2014-12-26,10:00,360.416,270.59866666666665,94644.600000000006,90.143000000000001,0.17500000000000002,5.86666666666666725E-002,10.550666666666666,29.177666666666667,72.479666666666660,2.3866666666666663,286.37666666666667,0.33999999999999991,274.10100000000006
2014-12-26,10:30,360.437,270.83533333333332,94641.899999999994,89.667666666666662,0.19333333333333338,0.13933333333333334,19.256666666666668,52.804333333333346,130.52599999999998,2.0166666666666671,150.87800000000001,0.33999999999999991,274.10266666666672
2014-12-26,11:00,360.458,271.01200000000000,94642.000000000000,89.137999999999991,0.16866666666666666,0.17000000000000004,18.610333333333337,51.095333333333343,125.82700000000003,1.7900000000000003,228.46666666666667,0.33999999999999991,274.10533333333348
2014-12-26,11:30,360.479,271.12999999999994,94626.466666666660,89.015999999999991,0.18833333333333338,0.10033333333333333,17.365000000000002,47.895333333333348,118.17566666666667,1.4966666666666664,167.04433333333333,0.33999999999999991,274.10066666666665
2014-12-26,12:00,360.499,271.20100000000008,94631.899999999994,88.651333333333341,0.27999999999999997,7.20000000000000223E-002,16.778666666666666,45.793999999999990,114.66466666666665,1.5833333333333337,238.71066666666667,0.33999999999999991,274.10300000000007
2014-12-26,12:30,360.520,271.24000000000007,94628.399999999994,89.100999999999971,0.24333333333333326,7.20000000000000362E-002,16.279333333333330,44.764333333333340,113.18633333333334,1.7866666666666668,319.00133333333338,0.33999999999999991,274.10033333333342
2014-12-26,13:00,360.541,271.27000000000010,94624.699999999997,89.459666666666649,0.25466666666666665,8.93333333333333479E-002,14.110666666666670,39.277333333333331,101.31266666666666,2.1866666666666665,305.43366666666668,0.33999999999999991,274.10433333333339
2014-12-26,13:30,360.562,271.29000000000002,94600.633333333331,89.096999999999994,0.40299999999999997,8.83333333333333470E-002,18.319999999999997,51.037666666666674,130.96866666666665,2.5066666666666668,289.78866666666664,0.33999999999999991,274.10333333333330
2014-12-26,14:00,360.583,271.44866666666678,94604.666666666672,88.690333333333314,0.39433333333333331,8.89999999999999958E-002,17.384333333333327,48.891666666666652,124.01866666666666,2.4099999999999997,200.36700000000002,0.33999999999999991,274.09833333333336
2014-12-26,14:30,360.604,271.38966666666653,94628.100000000006,88.568999999999988,0.38766666666666671,3.43333333333333407E-002,13.786000000000001,38.472333333333339,98.269333333333336,3.0066666666666664,245.12199999999999,0.33999999999999991,274.10099999999994
2014-12-26,15:00,360.624,271.38366666666650,94663.633333333331,89.117999999999995,0.38533333333333331,6.66666666666667512E-004,9.4913333333333352,26.546333333333333,68.204666666666668,2.6400000000000006,304.14400000000001,0.33999999999999991,274.10266666666672
2014-12-26,15:30,360.645,271.42233333333337,94701.233333333337,89.366999999999990,0.39333333333333337,-3.99999999999999922E-003,5.9480000000000013,16.530666666666665,42.585333333333331,2.3666666666666671,237.33266666666665,0.33999999999999991,274.10433333333344
2014-12-26,16:00,360.666,271.35766666666660,94715.733333333337,89.278000000000006,0.41333333333333327,-3.16666666666666693E-002,2.3723333333333341,6.1893333333333347,16.926333333333329,3.1000000000000005,177.51066666666665,0.33999999999999991,274.10033333333342
2014-12-26,16:30,360.687,271.24466666666666,94725.333333333328,89.536333333333317,0.43099999999999999,-7.36666666666666858E-002,0.75866666666666660,1.2639999999999993,4.7300000000000022,3.1900000000000008,251.07733333333331,0.33999999999999991,274.10100000000006
2014-12-26,17:00,360.708,271.16899999999993,94757.800000000003,89.528666666666680,0.45533333333333342,-6.73333333333333700E-002,0.22033333333333338,-0.28266666666666662,0.21000000000000002,2.9933333333333336,206.55533333333332,0.33999999999999991,274.10100000000000
2014-12-26,17:30,360.729,271.17433333333327,94797.699999999997,89.571666666666673,0.49599999999999994,-5.20000000000000254E-002,0.16133333333333336,-0.26133333333333325,-1.86666666666666682E-002,2.7299999999999995,177.81133333333335,0.33999999999999991,274.09800000000007
2014-12-26,18:00,360.749,271.15999999999991,94819.966666666660,89.916333333333355,0.49800000000000005,-1.30000000000000011E-002,0.10633333333333339,-0.15166666666666670,-1.20000000000000020E-002,2.5166666666666666,295.28899999999999,0.33999999999999991,274.09966666666674
2014-12-26,18:30,360.770,271.06566666666686,94823.566666666666,90.662333333333336,0.50666666666666660,2.23333333333333370E-002,-4.86666666666666775E-002,-4.00000000000000147E-002,-2.63333333333333336E-002,3.2500000000000004,286.16700000000003,0.33999999999999991,274.09366666666665
2014-12-26,19:00,360.791,271.05700000000013,94821.466666666660,90.799666666666681,0.50566666666666671,2.96666666666666710E-002,-8.66666666666666974E-002,3.60000000000000042E-002,-2.26666666666666683E-002,2.9699999999999998,210.98933333333335,0.33999999999999991,274.09766666666678
2014-12-26,19:30,360.812,271.06000000000012,94823.699999999997,90.722666666666640,0.44133333333333341,2.50000000000000083E-002,-0.11200000000000006,3.06666666666666719E-002,-1.00000000000000019E-002,2.9399999999999995,172.81100000000001,0.33999999999999991,274.09566666666672
2014-12-26,20:00,360.833,270.94133333333326,94828.000000000000,90.613666666666674,0.44666666666666666,3.76666666666666677E-002,-0.12966666666666668,-6.80000000000000326E-002,-1.30000000000000046E-002,3.0233333333333325,261.81200000000001,0.33999999999999991,274.09600000000006
2014-12-26,20:30,360.854,270.77133333333347,94807.433333333334,90.385999999999996,0.52633333333333332,2.43333333333333318E-002,-8.06666666666667059E-002,-6.53333333333333682E-002,-2.00000000000000108E-002,3.2266666666666661,215.94066666666666,0.33999999999999991,274.09633333333335
2014-12-26,21:00,360.874,270.74100000000016,94829.866666666669,90.381333333333330,0.55100000000000005,-1.66666666666666699E-003,-3.00000000000000058E-002,-4.80000000000000288E-002,-2.36666666666666727E-002,2.4000000000000004,244.38866666666667,0.33999999999999991,274.09766666666667
2014-12-26,21:30,360.895,270.75900000000013,94863.233333333337,89.904666666666657,0.53233333333333333,-1.20000000000000020E-002,3.99999999999999922E-003,-8.00000000000000294E-002,-2.80000000000000110E-002,2.1033333333333335,275.57700000000006,0.33999999999999991,274.09566666666677
2014-12-26,22:00,360.916,270.68699999999995,94847.899999999994,90.370333333333335,0.48599999999999999,1.90000000000000030E-002,-7.83333333333333659E-002,-3.13333333333333311E-002,-2.20000000000000057E-002,2.4266666666666672,285.93233333333330,0.33999999999999991,274.09700000000009
2014-12-26,22:30,360.937,270.74900000000008,94851.100000000006,89.729000000000013,0.42333333333333339,-6.16666666666666821E-002,2.66666666666666718E-002,-0.20333333333333328,-2.86666666666666771E-002,1.8499999999999994,237.32266666666666,0.33999999999999991,274.09766666666667
2014-12-26,23:00,360.958,270.77366666666666,94835.100000000006,89.049666666666653,0.32966666666666655,-9.73333333333333273E-002,3.93333333333333451E-002,-0.39066666666666655,-3.40000000000000094E-002,2.4533333333333336,231.22133333333332,0.33999999999999991,274.09466666666668
2014-12-26,23:30,360.979,270.61566666666664,94808.166666666672,89.575000000000003,0.35299999999999998,-5.43333333333333515E-002,1.46666666666666664E-002,-0.25733333333333341,-2.66666666666666649E-002,2.8166666666666660,241.98866666666666,0.33999999999999991,274.09433333333340
2014-12-27,00:00,361.000,270.58900000000017,94775.000000000000,89.382333333333321,0.36699999999999999,-5.30000000000000124E-002,1.39999999999999968E-002,-0.20966666666666664,-2.86666666666666771E-002,3.1766666666666672,192.83333333333334,0.33999999999999991,274.09366666666676
